Burlington, WA
on Friday, December 21, 2012

Friday
Previous Day Next Day
Daily Summary
 ActualAverage (KBLI)Record (KBLI)
Temperature
Mean Temperature °F 38°F  
Max Temperature 42°F 44°F 60°F (1950)
Min Temperature 33°F 32°F 8°F (1990)
Degree Days
Heating Degree Days 28 27  
Month to date heating degree days 557  
Cooling Degree Days 0 0  
Month to date cooling degree days 0  
Year to date cooling degree days 42  
Moisture
Dew Point 36°F   
Average Humidity 91    
Maximum Humidity 100    
Minimum Humidity 81    
Precipitation
Precipitation 0.01 in 0.13 in 1.48 in (1972)
Month to date precipitation 2.99  
Year to date precipitation 34.60  
Wind
Wind Speed 8 mph   
Max Wind Speed 16 mph   
Max Gust Speed 21 mph   
Visibility 9 miles   
Events     

Key: T is trace of precipitation, MM is missing value
Source: NWS Daily Summary
Time(PST)TemperatureDew PointHumidity Pressure Visibility Wind DirectionWind SpeedGust SpeedPrecipitationEvents Conditions
12:15 AM 37.4°F 35.6°F 93% 29.82 in 10.0 miles East 4.6 mph - 0.00 in   Clear
12:35 AM 35.6°F 35.6°F 100% 29.82 in 10.0 miles ENE 6.9 mph - 0.00 in   Clear
12:55 AM 37.4°F 35.6°F 93% 29.82 in 10.0 miles South 4.6 mph - 0.00 in   Clear
1:15 AM 35.6°F 35.6°F 100% 29.82 in 10.0 miles East 4.6 mph - 0.00 in   Clear
1:35 AM 35.6°F 35.6°F 100% 29.81 in 10.0 miles NE 6.9 mph - 0.00 in   Clear
1:55 AM 35.6°F 35.6°F 100% 29.81 in 10.0 miles ENE 5.8 mph - 0.00 in   Clear
2:15 AM 35.6°F 35.6°F 100% 29.81 in 10.0 miles East 3.5 mph - 0.00 in   Clear
2:35 AM 37.4°F 35.6°F 93% 29.81 in 10.0 miles East 11.5 mph - 0.00 in   Clear
2:55 AM 37.4°F 35.6°F 93% 29.80 in 10.0 miles East 11.5 mph - 0.00 in   Clear
3:15 AM 37.4°F 35.6°F 93% 29.80 in 10.0 miles East 10.4 mph - 0.00 in   Clear
3:35 AM 35.6°F 35.6°F 100% 29.78 in 10.0 miles East 12.7 mph - 0.00 in   Clear
3:55 AM 37.4°F 35.6°F 93% 29.79 in 10.0 miles East 13.8 mph - 0.00 in   Clear
4:15 AM 35.6°F 33.8°F 93% 29.79 in 10.0 miles SSE 5.8 mph - 0.00 in   Clear
4:35 AM 35.6°F 33.8°F 93% 29.79 in 10.0 miles ENE 3.5 mph - 0.00 in   Clear
4:55 AM 33.8°F 33.8°F 100% 29.78 in 10.0 miles Calm Calm - 0.00 in   Clear
5:15 AM 35.6°F 33.8°F 93% 29.77 in 10.0 miles ENE 4.6 mph - 0.00 in   Clear
5:35 AM 35.6°F 33.8°F 93% 29.77 in 10.0 miles East 4.6 mph - 0.00 in   Clear
5:55 AM 35.6°F 33.8°F 93% 29.77 in 10.0 miles East 3.5 mph - 0.00 in   Clear
6:15 AM 35.6°F 33.8°F 93% 29.76 in 10.0 miles ENE 12.7 mph - 0.00 in   Clear
6:35 AM 35.6°F 33.8°F 93% 29.75 in 10.0 miles East 13.8 mph 19.6 mph 0.00 in   Clear
6:55 AM 35.6°F 33.8°F 93% 29.75 in 10.0 miles East 11.5 mph - 0.00 in   Clear
7:15 AM 35.6°F 33.8°F 93% 29.75 in 10.0 miles East 16.1 mph - 0.00 in   Clear
7:35 AM 35.6°F 33.8°F 93% 29.75 in 10.0 miles ENE 11.5 mph - 0.00 in   Mostly Cloudy
7:55 AM 35.6°F 33.8°F 93% 29.75 in 10.0 miles ENE 9.2 mph - 0.00 in   Mostly Cloudy
8:15 AM 37.4°F 32.0°F 81% 29.75 in 10.0 miles East 15.0 mph - 0.00 in   Mostly Cloudy
8:35 AM 37.4°F 32.0°F 81% 29.74 in 8.0 miles East 11.5 mph - 0.00 in   Mostly Cloudy
8:55 AM 37.4°F 32.0°F 81% 29.74 in 8.0 miles ESE 8.1 mph - 0.00 in   Scattered Clouds
9:15 AM 37.4°F 32.0°F 81% 29.75 in 9.0 miles East 3.5 mph - 0.00 in   Mostly Cloudy
9:35 AM 37.4°F 33.8°F 87% 29.75 in 10.0 miles NE 4.6 mph - 0.00 in   Overcast
9:55 AM 37.4°F 33.8°F 87% 29.74 in 9.0 miles ENE 9.2 mph - 0.00 in   Overcast
10:15 AM 37.4°F 33.8°F 87% 29.75 in 8.0 miles East 9.2 mph - 0.00 in   Mostly Cloudy
10:35 AM 39.2°F 33.8°F 81% 29.74 in 8.0 miles East 9.2 mph - 0.00 in   Mostly Cloudy
10:55 AM 39.2°F 33.8°F 81% 29.75 in 7.0 miles ESE 5.8 mph - 0.00 in   Mostly Cloudy
11:15 AM 39.2°F 35.6°F 87% 29.76 in 9.0 miles SSE 3.5 mph - 0.00 in   Overcast
11:35 AM 37.4°F 35.6°F 93% 29.76 in 3.0 miles South 5.8 mph - 0.00 in   Overcast
11:55 AM 37.4°F 37.4°F 100% 29.77 in 2.5 miles SE 11.5 mph 20.7 mph 0.01 in   Mostly Cloudy
12:15 PM 39.2°F 39.2°F 100% 29.75 in 2.5 miles ESE 11.5 mph 17.3 mph 0.00 in   Overcast
12:35 PM 41.0°F 41.0°F 100% 29.76 in 5.0 miles East 10.4 mph - 0.00 in   Overcast
1:15 PM 41.0°F 39.2°F 93% 29.77 in 8.0 miles East 11.5 mph - 0.00 in   Overcast
1:35 PM 41.0°F 39.2°F 93% 29.75 in 5.0 miles East 12.7 mph - 0.00 in   Mostly Cloudy
2:15 PM 42.8°F 39.2°F 87% 29.76 in 6.0 miles SE 11.5 mph 16.1 mph 0.00 in   Overcast
2:35 PM 42.8°F 39.2°F 87% 29.75 in 8.0 miles ESE 12.7 mph 19.6 mph 0.00 in   Scattered Clouds
2:55 PM 42.8°F 41.0°F 93% 29.74 in 9.0 miles East 16.1 mph 20.7 mph 0.00 in   Partly Cloudy
3:15 PM 42.8°F 39.2°F 87% 29.75 in 8.0 miles ENE 8.1 mph - 0.00 in   Partly Cloudy
3:35 PM 41.0°F 37.4°F 87% 29.74 in 9.0 miles ENE 12.7 mph - 0.00 in   Partly Cloudy
3:55 PM 39.2°F 37.4°F 93% 29.75 in 9.0 miles East 9.2 mph - 0.00 in   Clear
4:15 PM 39.2°F 37.4°F 93% 29.75 in 9.0 miles East 8.1 mph - 0.00 in   Clear
4:55 PM 39.2°F 37.4°F 93% 29.75 in 10.0 miles East 5.8 mph - 0.00 in   Clear
5:15 PM 37.4°F 35.6°F 93% 29.74 in 10.0 miles East 10.4 mph - 0.00 in   Clear
5:35 PM 39.2°F 35.6°F 87% 29.74 in 10.0 miles ENE 6.9 mph - 0.00 in   Clear
5:55 PM 39.2°F 35.6°F 87% 29.74 in 10.0 miles East 9.2 mph - 0.00 in   Partly Cloudy
6:15 PM 37.4°F 35.6°F 93% 29.74 in 10.0 miles NE 3.5 mph - 0.00 in   Clear
6:35 PM 37.4°F 35.6°F 93% 29.74 in 10.0 miles ENE 9.2 mph - 0.00 in   Partly Cloudy
6:55 PM 37.4°F 35.6°F 93% 29.73 in 10.0 miles ENE 9.2 mph - 0.00 in   Partly Cloudy
7:15 PM 39.2°F 35.6°F 87% 29.73 in 10.0 miles ENE 11.5 mph - 0.00 in   Clear
7:35 PM 39.2°F 35.6°F 87% 29.73 in 10.0 miles ENE 8.1 mph - 0.00 in   Partly Cloudy
7:55 PM 37.4°F 35.6°F 93% 29.72 in 10.0 miles NE 10.4 mph - 0.00 in   Scattered Clouds
8:15 PM 37.4°F 35.6°F 93% 29.72 in 10.0 miles NE 10.4 mph - 0.00 in   Partly Cloudy
8:35 PM 37.4°F 35.6°F 93% 29.71 in 10.0 miles ENE 9.2 mph - 0.00 in   Clear
8:55 PM 37.4°F 35.6°F 93% 29.71 in 10.0 miles NE 10.4 mph - 0.00 in   Scattered Clouds
9:15 PM 37.4°F 35.6°F 93% 29.71 in 10.0 miles NNE 8.1 mph - 0.00 in   Partly Cloudy
9:35 PM 37.4°F 35.6°F 93% 29.70 in 10.0 miles NE 8.1 mph - 0.00 in   Mostly Cloudy
9:55 PM 37.4°F 35.6°F 93% 29.70 in 10.0 miles NE 12.7 mph - 0.00 in   Overcast
10:15 PM 37.4°F 35.6°F 93% 29.69 in 10.0 miles NE 13.8 mph 18.4 mph 0.00 in   Overcast
10:35 PM 39.2°F 35.6°F 87% 29.69 in 10.0 miles NE 12.7 mph - 0.00 in   Mostly Cloudy
10:55 PM 39.2°F 35.6°F 87% 29.71 in 10.0 miles NE 5.8 mph - 0.00 in   Scattered Clouds
11:15 PM 39.2°F 35.6°F 87% 29.71 in 10.0 miles NE 5.8 mph - 0.00 in   Mostly Cloudy
11:35 PM 39.2°F 35.6°F 87% 29.71 in 10.0 miles NE 5.8 mph - 0.00 in   Overcast
11:55 PM 39.2°F 35.6°F 87% 29.70 in 10.0 miles NE 9.2 mph - 0.00 in   Mostly Cloudy
Moon Phase
Dec. 21 Dec. 28 Jan. 04 Jan. 11 Jan. 18
Sunrise:07:59 AM (PST) Moon Rise:12:25 PM (PST)12/21
Sunset:04:17 PM (PST) Moon Set:01:31 AM (PST)12/21

Copyright © 2014 The Weather Underground, Inc.